1505476800.35,42336,17.5,73682.3,13.29,-29.17,-30.17,0,*4C
1505476801.58,42337,17.5,73680.3,13.25,-28.47,-30.45,0,*42
1505476802.81,42338,17.5,73682.8,13.25,-28.63,-31.17,0,*4D
1505476804.05,42339,17.5,73684.5,13.21,-27.77,-30.33,0,*45
1505476805.3,42340,17.5,73684.0,13.23,-26.93,-29.29,0,*41
1505476806.55,42341,17.5,73680.5,13.21,-30.23,-31.23,0,*4D
1505476807.81,42342,17.5,73682.3,13.19,-30.51,-30.89,0,*41
1505476809.03,42343,17.5,73680.3,13.19,-29.29,-29.45,0,*4F
1505476810.27,42344,17.5,73682.8,13.17,-29.57,-29.61,0,*49
1505476811.54,42345,17.5,73682.0,13.17,-30.55,-30.61,0,*4A
1505476812.82,42346,17.5,73680.3,13.17,-30.61,-30.61,0,*4E
1505476814.06,42347,17.5,73682.5,13.11,-30.83,-30.73,0,*46
1505476815.33,42348,17.5,73684.3,13.13,-29.39,-29.45,0,*4F
1505476816.57,42349,17.5,73682.3,13.11,-28.59,-28.79,0,*45
1505476817.83,42350,17.5,73682.8,13.13,-26.61,-26.71,0,*4C
1505476819.06,42351,17.5,73676.8,13.13,-27.03,-26.87,0,*41
1505476820.33,42352,17.5,73682.0,13.11,-26.33,-25.75,0,*4C
1505476821.56,42353,17.5,73680.3,13.11,-26.17,-24.47,0,*4B
1505476822.76,42354,17.5,73678.0,13.11,-24.61,-21.43,0,*4E
1505476824.02,42355,17.5,73676.5,13.13,-22.77,-18.17,0,*47
1505476825.27,42356,17.5,73680.3,13.11,-19.85,-14.79,0,*47
1505476826.55,42357,17.5,73682.3,13.13,-17.21,-11.81,0,*46
1505476827.81,42358,17.5,73680.8,13.17,-16.13,-11.01,0,*45
1505476829.03,42359,17.5,73676.8,13.19,-16.45,-10.71,0,*4F
1505476830.26,42360,17.5,73676.3,13.21,-17.31,-10.45,0,*4B
1505476831.49,42361,17.5,73680.0,13.23,-16.69,-8.89,0,*7D
1505476832.7,42362,17.5,73676.8,13.27,-15.71,-8.29,0,*7A
1505476833.98,42363,17.5,73678.5,13.27,-14.43,-7.91,0,*77
1505476835.18,42364,17.5,73676.8,13.29,-15.07,-9.71,0,*7F
1505476836.46,42365,17.5,73676.8,13.31,-16.13,-11.81,0,*47
1505476837.69,42366,17.5,73680.3,13.31,-16.97,-14.23,0,*45
1505476838.92,42367,17.5,73678.3,13.33,-17.59,-15.63,0,*40
1505476840.17,42368,17.5,73676.8,13.33,-17.17,-16.27,0,*46
1505476841.45,42369,17.5,73676.3,13.35,-17.55,-17.59,0,*4F
1505476842.7,42370,17.5,73678.3,13.33,-17.59,-17.41,0,*44
1505476843.93,42371,17.5,73678.0,13.33,-17.31,-17.03,0,*4D
1505476845.19,42372,17.5,73680.5,13.31,-16.55,-16.27,0,*48
1505476846.39,42373,17.5,73678.5,13.33,-15.63,-15.11,0,*4B
1505476847.65,42374,17.5,73678.3,13.35,-15.89,-15.49,0,*43
1505476848.9,42375,17.5,73682.0,13.35,-15.49,-14.83,0,*49
1505476850.13,42376,17.5,73682.3,13.33,-13.61,-13.07,0,*4B
1505476851.36,42377,17.5,73676.3,13.33,-13.01,-12.29,0,*41
1505476852.56,42378,17.5,73680.8,13.33,-12.29,-11.23,0,*4C
1505476853.81,42379,17.5,73680.0,13.35,-11.51,-10.49,0,*4A
1505476855.06,42380,17.5,73682.0,13.35,-13.87,-13.11,0,*4B
1505476856.31,42381,17.5,73682.5,13.35,-13.87,-13.73,0,*4E
1505476857.54,42382,17.5,73678.8,13.33,-17.69,-17.41,0,*4A
1505476858.8,42383,17.5,73682.5,13.33,-21.83,-21.23,0,*4B
1505476860.02,42384,17.5,73680.8,13.33,-23.33,-22.07,0,*40
1505476861.25,42385,17.5,73680.0,13.33,-25.29,-22.87,0,*44
1505476862.53,42386,17.5,73676.8,13.31,-23.99,-21.53,0,*42
1505476863.76,42387,17.5,73682.8,13.29,-25.29,-23.09,0,*4A
1505476864.99,42388,17.5,73678.5,13.27,-23.89,-22.63,0,*4A
1505476866.25,42389,17.5,73680.0,13.25,-25.55,-26.17,0,*49
1505476867.47,42390,17.5,73678.5,13.27,-24.97,-25.23,0,*48
1505476868.7,42391,17.5,73682.3,13.25,-24.87,-24.77,0,*4A
1505476869.93,42392,17.5,73680.8,13.25,-25.45,-26.07,0,*43
1505476871.16,42393,17.5,73678.3,13.29,-26.49,-27.19,0,*4F
1505476872.42,42394,17.5,73676.0,13.27,-23.43,-24.25,0,*45
1505476873.67,42395,17.5,73682.3,13.27,-22.57,-22.73,0,*45
1505476874.95,42396,17.5,73680.8,13.27,-21.33,-21.67,0,*41
1505476876.2,42397,17.5,73680.5,13.29,-19.41,-18.35,0,*4D
1505476877.46,42398,17.5,73676.5,13.29,-17.07,-16.31,0,*44
1505476878.69,42399,17.5,73676.8,13.29,-17.79,-16.55,0,*4E
1505476879.97,42400,17.5,73682.0,13.31,-17.55,-16.51,0,*4A
1505476881.23,42401,17.5,73676.3,13.31,-17.17,-15.53,0,*4C
1505476882.49,42402,17.5,73680.5,13.31,-15.39,-13.65,0,*42
1505476883.7,42403,17.5,73678.8,13.33,-15.01,-13.15,0,*4D
1505476884.93,42404,17.5,73680.5,13.33,-16.23,-13.23,0,*4C
1505476886.13,42405,17.5,73682.3,13.33,-14.33,-10.53,0,*4A
1505476887.35,42406,17.5,73680.0,13.33,-13.01,-9.19,0,*79
1505476888.57,42407,17.5,73682.0,13.33,-12.35,-8.75,0,*75
1505476889.82,42408,17.5,73676.5,13.35,-13.55,-9.61,0,*7F
1505476891.09,42409,17.5,73680.0,13.35,-15.01,-10.63,0,*43
1505476892.31,42410,17.5,73678.8,13.37,-16.03,-11.97,0,*42
1505476893.53,42411,17.5,73678.0,13.37,-15.99,-12.11,0,*4E
1505476894.8,42412,17.5,73680.3,13.37,-13.97,-11.29,0,*4D
1505476896.05,42413,17.5,73680.5,13.41,-14.43,-14.51,0,*49
1505476897.28,42414,17.5,73678.8,13.41,-14.97,-16.75,0,*43
1505476898.54,42415,17.5,73680.5,13.37,-16.23,-17.97,0,*43
1505476899.77,42416,17.5,73680.5,13.37,-15.43,-15.75,0,*4B
1505476901.03,42417,17.5,73678.3,13.37,-16.09,-15.57,0,*47
1505476902.23,42418,17.5,73676.0,13.41,-15.99,-14.65,0,*43
1505476903.46,42419,17.5,73678.0,13.43,-16.97,-15.49,0,*42
1505476904.72,42420,17.5,73678.8,13.45,-17.03,-14.93,0,*44
1505476906.0,42421,17.5,73682.8,13.43,-17.45,-14.79,0,*45
1505476907.25,42422,17.5,73682.0,13.47,-18.59,-15.95,0,*43
1505476908.46,42423,17.5,73678.0,13.49,-18.41,-16.79,0,*44
1505476909.71,42424,17.5,73682.8,13.49,-21.33,-20.53,0,*41
1505476910.92,42425,17.5,73678.5,13.49,-22.93,-22.07,0,*4A
1505476912.17,42426,17.5,73678.3,13.51,-22.63,-20.19,0,*42
1505476913.42,42427,17.5,73682.3,13.51,-20.69,-17.97,0,*49
1505476914.65,42428,17.5,73682.0,13.53,-20.93,-18.01,0,*41
1505476915.89,42429,17.5,73676.3,13.51,-21.27,-18.83,0,*46
1505476917.14,42430,17.5,73680.3,13.51,-22.11,-21.03,0,*4A
1505476918.4,42431,17.5,73676.3,13.53,-22.17,-20.79,0,*43
1505476919.63,42432,17.5,73680.0,13.51,-21.77,-20.63,0,*4C
1505476920.84,42433,17.5,73678.0,13.49,-22.53,-22.11,0,*46
1505476922.09,42434,17.5,73680.5,13.47,-22.03,-22.31,0,*48
1505476923.34,42435,17.5,73678.3,13.47,-23.69,-24.57,0,*42
1505476924.56,42436,17.5,73674.8,13.47,-23.39,-23.59,0,*4D
1505476925.78,42437,17.5,73680.8,13.43,-25.23,-26.23,0,*4D
1505476927.05,42438,17.5,73680.0,13.43,-25.29,-27.23,0,*49
1505476928.28,42439,17.5,73676.3,13.41,-27.83,-29.83,0,*4C
1505476929.5,42440,17.5,73682.0,13.37,-27.51,-29.01,0,*46
1505476930.72,42441,17.5,73680.5,13.37,-28.09,-29.07,0,*43
1505476931.96,42442,17.5,73678.3,13.37,-26.33,-26.87,0,*40
1505476933.2,42443,17.5,73680.0,13.35,-27.83,-28.37,0,*4C
1505476934.47,42444,17.5,73682.5,13.35,-27.83,-28.09,0,*46
1505476935.75,42445,17.5,73678.8,13.35,-27.83,-27.39,0,*4B
1505476936.97,42446,17.5,73680.3,13.33,-27.55,-26.71,0,*48
1505476938.22,42447,17.5,73678.3,13.37,-27.99,-27.23,0,*4B
1505476939.48,42448,17.5,73676.8,13.37,-28.05,-27.23,0,*4E
1505476940.73,42449,17.5,73682.5,13.37,-29.73,-29.89,0,*41
1505476941.96,42450,17.5,73680.8,13.35,-30.27,-30.45,0,*4A
1505476943.16,42451,17.5,73678.5,13.33,-29.79,-29.67,0,*46
1505476944.44,42452,17.5,73682.0,13.35,-29.01,-28.43,0,*4B
1505476945.71,42453,17.5,73678.3,13.35,-27.99,-27.83,0,*46
1505476946.96,42454,17.5,73676.3,13.37,-29.73,-30.05,0,*41
1505476948.19,42455,17.5,73678.8,13.33,-30.27,-30.01,0,*49
1505476949.42,42456,17.5,73676.0,13.33,-29.79,-29.35,0,*46
1505476950.66,42457,17.5,73676.3,13.33,-29.61,-28.25,0,*4E
1505476951.91,42458,17.5,73676.8,13.31,-28.63,-26.61,0,*4E
1505476953.18,42459,17.5,73682.0,13.31,-27.13,-25.75,0,*41
1505476954.41,42460,17.5,73678.5,13.29,-28.21,-27.67,0,*4D
1505476955.66,42461,17.5,73678.3,13.29,-29.13,-28.79,0,*4C
1505476956.94,42462,17.5,73678.5,13.31,-28.43,-27.45,0,*42
1505476958.17,42463,17.56,73682.0,13.31,-27.55,-26.45,0,*4A
1505476959.37,42464,17.5,73676.0,13.29,-28.15,-26.61,0,*49
1505476960.6,42465,17.5,73676.5,13.31,-26.87,-24.47,0,*42
1505476961.83,42466,17.5,73678.0,13.31,-23.89,-21.39,0,*46
1505476963.07,42467,17.5,73676.0,13.31,-21.73,-19.99,0,*41
1505476964.35,42468,17.5,73678.8,13.31,-21.23,-20.99,0,*41
1505476965.57,42469,17.5,73676.0,13.33,-20.93,-21.57,0,*4B
1505476966.77,42470,17.5,73676.0,13.33,-21.39,-22.63,0,*46
1505476968.04,42471,17.56,73680.5,13.31,-21.67,-23.13,0,*48
1505476969.27,42472,17.5,73676.0,13.33,-24.41,-25.91,0,*44
1505476970.5,42473,17.56,73678.5,13.31,-25.39,-26.87,0,*4D
1505476971.77,42474,17.5,73680.8,13.31,-25.45,-27.39,0,*45
1505476973.0,42475,17.5,73676.3,13.27,-29.79,-31.45,0,*4C
1505476974.2,42476,17.5,73676.5,13.23,-31.01,-32.57,0,*4D
1505476975.43,42477,17.5,73676.0,13.23,-32.79,-33.67,0,*42
1505476976.69,42478,17.5,73678.5,13.21,-33.73,-33.95,0,*49
1505476977.92,42479,17.5,73670.3,13.19,-32.75,-32.35,0,*4F
1505476979.15,42480,17.5,73672.8,13.13,-30.67,-30.27,0,*43
1505476980.43,42481,17.5,73676.3,13.13,-29.13,-29.39,0,*4E
1505476981.67,42482,17.56,73678.3,13.11,-28.47,-29.13,0,*47
1505476982.9,42483,17.56,73678.8,13.11,-28.91,-29.45,0,*4E
1505476984.13,42484,17.5,73676.5,13.11,-28.79,-29.07,0,*49
1505476985.38,42485,17.5,73676.0,13.13,-28.97,-29.13,0,*4F
1505476986.61,42486,17.56,73678.3,13.13,-29.79,-29.45,0,*4E
1505476987.83,42487,17.5,73678.8,13.11,-28.97,-28.79,0,*42
1505476989.09,42488,17.5,73676.0,13.13,-29.23,-28.63,0,*4A
1505476990.33,42489,17.5,73676.5,13.13,-29.61,-29.45,0,*48
1505476991.55,42490,17.5,73680.3,13.13,-29.23,-29.07,0,*40
1505476992.81,42491,17.56,73682.3,13.17,-27.83,-27.67,0,*49
1505476994.06,42492,17.5,73678.3,13.17,-27.89,-27.39,0,*4B
1505476995.28,42493,17.5,73680.3,13.19,-27.93,-27.23,0,*44
1505476996.51,42494,17.56,73682.3,13.19,-27.23,-26.65,0,*4B
1505476997.73,42495,17.5,73678.0,13.23,-27.19,-26.87,0,*46
1505476998.95,42496,17.56,73682.8,13.23,-28.97,-28.75,0,*4F
1505477000.21,42497,17.56,73680.0,13.21,-29.73,-29.57,0,*46
1505477001.47,42498,17.5,73680.0,13.21,-31.45,-31.11,0,*4E
1505477002.73,42499,17.5,73682.8,13.21,-31.29,-31.11,0,*45
1505477003.99,42500,17.5,73682.5,13.21,-31.79,-31.39,0,*4B
1505477005.21,42501,17.56,73680.3,13.19,-29.01,-28.53,0,*43
1505477006.44,42502,17.5,73682.3,13.19,-28.69,-28.25,0,*4E
1505477007.7,42503,17.56,73680.3,13.21,-27.83,-27.51,0,*43
1505477008.93,42504,17.56,73680.0,13.23,-27.45,-27.07,0,*4F
1505477010.16,42505,17.5,73682.5,13.23,-27.29,-26.93,0,*48
1505477011.41,42506,17.56,73680.0,13.25,-29.13,-28.91,0,*46
1505477012.62,42507,17.5,73680.8,13.25,-30.11,-29.67,0,*45
1505477013.82,42508,17.56,73680.5,13.25,-30.11,-29.79,0,*45
1505477015.07,42509,17.5,73680.0,13.25,-32.45,-32.29,0,*48
1505477016.3,42510,17.5,73678.3,13.23,-31.95,-32.39,0,*49
1505477017.55,42511,17.56,73680.0,13.17,-35.13,-35.23,0,*49
1505477018.82,42512,17.56,73680.0,13.17,-32.97,-32.97,0,*49
1505477020.05,42513,17.5,73678.8,13.11,-32.57,-32.45,0,*4D
1505477021.32,42514,17.56,73680.0,13.09,-33.21,-33.27,0,*46
1505477022.55,42515,17.56,73680.3,13.07,-35.23,-35.29,0,*45
1505477023.78,42516,17.56,73678.5,13.03,-33.15,-33.09,0,*45
1505477025.04,42517,17.56,73682.8,12.99,-33.89,-33.61,0,*4D
1505477026.32,42518,17.56,73680.5,12.97,-34.31,-34.19,0,*40
1505477027.55,42519,17.56,73680.3,12.95,-34.19,-34.13,0,*43
1505477028.77,42520,17.56,73678.8,12.89,-32.35,-31.95,0,*47
1505477029.98,42521,17.56,73682.3,12.89,-32.23,-31.29,0,*46
1505477031.19,42522,17.56,73684.5,12.89,-29.83,-29.83,0,*4C
1505477032.44,42523,17.56,73684.3,12.87,-31.39,-31.01,0,*48
1505477033.67,42524,17.56,73682.0,12.85,-31.51,-31.29,0,*49
1505477034.86,42525,17.56,73680.5,12.85,-32.35,-32.01,0,*40
1505477036.09,42526,17.56,73680.0,12.85,-31.79,-31.51,0,*4E
1505477037.34,42527,17.56,73682.0,12.85,-30.05,-29.89,0,*49
1505477038.59,42528,17.5,73678.8,12.85,-29.17,-29.01,0,*4D
1505477039.82,42529,17.56,73680.8,12.85,-29.73,-29.67,0,*4E
1505477041.07,42530,17.56,73680.8,12.85,-29.35,-29.17,0,*43
1505477042.33,42531,17.56,73682.5,12.87,-29.79,-29.51,0,*4A
1505477043.59,42532,17.5,73680.0,12.87,-29.67,-29.51,0,*46
1505477044.81,42533,17.56,73682.3,12.87,-32.23,-32.13,0,*41
1505477046.08,42534,17.5,73676.8,12.87,-32.97,-32.79,0,*45
1505477047.28,42535,17.5,73676.0,12.85,-31.79,-31.79,0,*46
1505477048.52,42536,17.56,73678.0,12.85,-32.75,-32.69,0,*48
1505477049.81,42537,17.56,73680.3,12.83,-32.79,-32.75,0,*4E
1505477051.01,42538,17.56,73680.3,12.81,-33.21,-33.15,0,*48
1505477052.26,42539,17.56,73682.5,12.77,-33.77,-33.61,0,*40
1505477053.51,42540,17.56,73678.8,12.77,-30.77,-30.55,0,*49
1505477054.74,42541,17.56,73676.8,12.77,-31.95,-31.79,0,*4A
1505477055.96,42542,17.56,73676.5,12.73,-30.83,-30.67,0,*45
1505477057.21,42543,17.56,73682.0,12.75,-31.51,-31.33,0,*4C
1505477058.45,42544,17.56,73678.8,12.73,-32.39,-32.19,0,*4B
1505477059.68,42545,17.56,73682.3,12.73,-31.91,-31.17,0,*46
1505477060.94,42546,17.56,73682.5,12.73,-31.91,-31.73,0,*47
1505477062.15,42547,17.5,73678.0,12.73,-32.57,-32.39,0,*42
1505477063.38,42548,17.56,73682.0,12.69,-31.45,-31.39,0,*45
1505477064.64,42549,17.56,73682.3,12.67,-32.07,-32.13,0,*44
1505477065.88,42550,17.56,73678.3,12.67,-34.13,-34.13,0,*49
1505477067.17,42551,17.56,73680.3,12.63,-33.31,-33.27,0,*4B
1505477068.42,42552,17.56,73676.3,12.63,-33.15,-33.09,0,*42
1505477069.64,42553,17.56,73682.3,12.63,-33.15,-33.15,0,*4E
1505477070.86,42554,17.5,73678.0,12.61,-31.45,-31.29,0,*41
1505477072.12,42555,17.56,73680.5,12.61,-31.91,-31.85,0,*4F
1505477073.32,42556,17.56,73682.3,12.59,-31.33,-31.33,0,*42
1505477074.52,42557,17.56,73678.3,12.61,-30.27,-30.11,0,*4D
1505477075.74,42558,17.56,73680.8,12.59,-32.69,-32.51,0,*47
1505477076.99,42559,17.56,73680.5,12.59,-32.85,-32.97,0,*4E
1505477078.22,42560,17.56,73680.3,12.57,-33.03,-33.21,0,*49
1505477079.43,42561,17.56,73676.5,12.55,-35.01,-35.01,0,*4A
1505477080.71,42562,17.56,73678.3,12.53,-33.49,-33.61,0,*45
1505477081.96,42563,17.56,73676.0,12.51,-33.31,-33.49,0,*43
1505477083.22,42564,17.56,73672.8,12.51,-33.27,-33.27,0,*4B
1505477084.45,42565,17.56,73682.5,12.45,-33.95,-33.95,0,*4F
1505477085.7,42566,17.56,73678.8,12.43,-34.65,-34.83,0,*42
1505477086.96,42567,17.56,73678.8,12.41,-36.55,-36.61,0,*4E
1505477088.22,42568,17.56,73678.0,12.37,-34.65,-34.77,0,*44
1505477089.43,42569,17.56,73676.3,12.35,-34.13,-33.95,0,*4D
1505477090.67,42570,17.56,73672.8,12.33,-31.33,-31.17,0,*4C
1505477091.9,42571,17.56,73676.8,12.35,-30.51,-30.67,0,*48
1505477093.13,42572,17.56,73676.8,12.35,-32.13,-32.29,0,*47
1505477094.34,42573,17.56,73680.0,12.35,-33.03,-33.03,0,*4F
1505477095.6,42574,17.56,73676.0,12.35,-32.79,-32.79,0,*48
1505477096.84,42575,17.56,73680.8,12.35,-32.63,-32.51,0,*48
1505477098.09,42576,17.56,73678.8,12.33,-33.27,-33.21,0,*4A
1505477099.31,42577,17.56,73678.3,12.31,-34.71,-34.77,0,*49
1505477100.53,42578,17.56,73678.8,12.31,-33.31,-33.21,0,*41
1505477101.81,42579,17.56,73680.3,12.29,-32.63,-32.63,0,*48
1505477103.07,42580,17.56,73680.5,12.29,-33.83,-33.73,0,*41
1505477104.32,42581,17.56,73676.3,12.23,-35.23,-35.41,0,*41
1505477105.56,42582,17.56,73676.8,12.19,-36.07,-36.25,0,*4F
1505477106.77,42583,17.56,73676.8,12.15,-35.59,-35.77,0,*4E
1505477108.0,42584,17.56,73676.3,12.15,-34.89,-35.07,0,*42
1505477109.24,42585,17.56,73680.3,12.11,-35.83,-36.01,0,*49
1505477110.46,42586,17.56,73676.8,12.11,-34.89,-35.07,0,*44
1505477111.71,42587,17.56,73678.0,12.07,-33.61,-33.49,0,*4F
1505477112.94,42588,17.56,73674.5,12.07,-33.73,-34.25,0,*4E
1505477114.19,42589,17.56,73676.3,12.05,-33.89,-33.95,0,*44
1505477115.44,42590,17.56,73680.3,12.01,-35.95,-36.07,0,*4D
1505477116.72,42591,17.56,73676.3,11.97,-36.13,-36.25,0,*4D
1505477117.98,42592,17.56,73682.0,11.95,-35.23,-35.17,0,*4E
1505477119.2,42593,17.56,73676.8,11.93,-33.89,-33.83,0,*44
1505477120.41,42594,17.56,73682.5,11.93,-32.69,-32.69,0,*49
1505477121.61,42595,17.56,73680.0,11.93,-33.21,-33.21,0,*48
1505477122.86,42596,17.56,73678.5,11.93,-31.39,-31.23,0,*40
1505477124.07,42597,17.56,73680.0,11.93,-31.17,-31.17,0,*4A
1505477125.29,42598,17.56,73676.8,11.93,-32.13,-31.91,0,*4C
1505477126.55,42599,17.56,73676.8,11.95,-30.67,-30.55,0,*43
1505477127.81,42600,17.56,73680.5,11.97,-29.89,-29.79,0,*4C
1505477129.03,42601,17.56,73678.5,11.97,-30.11,-29.95,0,*46
1505477130.26,42602,17.56,73682.0,11.99,-29.73,-29.67,0,*4A
1505477131.54,42603,17.56,73678.8,12.01,-30.55,-30.55,0,*4C
1505477132.8,42604,17.56,73678.0,12.01,-31.85,-31.67,0,*47
1505477134.03,42605,17.56,73676.3,12.01,-31.05,-31.05,0,*4A
1505477135.31,42606,17.56,73678.8,12.05,-30.01,-30.17,0,*4A
1505477136.57,42607,17.56,73676.8,12.05,-30.73,-30.83,0,*43
1505477137.8,42608,17.56,73678.5,12.05,-31.33,-31.33,0,*43
1505477139.06,42609,17.56,73676.5,12.05,-30.73,-30.67,0,*47
1505477140.32,42610,17.56,73676.0,12.01,-29.83,-29.73,0,*41
1505477141.52,42611,17.56,73678.0,12.07,-29.61,-29.61,0,*49
1505477142.8,42612,17.56,73676.0,12.09,-30.05,-29.89,0,*48
1505477144.01,42613,17.56,73678.3,12.11,-29.83,-29.67,0,*46
1505477145.24,42614,17.56,73682.3,12.11,-30.11,-30.01,0,*4A
1505477146.49,42615,17.56,73678.3,12.11,-29.01,-28.79,0,*44
1505477147.75,42616,17.56,73678.5,12.13,-29.35,-29.23,0,*4C
1505477149.01,42617,17.56,73680.0,12.15,-30.17,-30.05,0,*4F
1505477150.23,42618,17.56,73680.3,12.13,-32.35,-32.39,0,*49
1505477151.48,42619,17.56,73676.5,12.13,-32.91,-32.85,0,*41
1505477152.74,42620,17.56,73678.5,12.11,-30.61,-30.61,0,*4C
1505477154.0,42621,17.56,73680.0,12.11,-30.77,-30.95,0,*41
1505477155.22,42622,17.56,73676.3,12.09,-32.23,-32.35,0,*40
1505477156.5,42623,17.56,73678.3,12.09,-31.85,-31.85,0,*46
1505477157.75,42624,17.56,73676.5,12.09,-30.51,-30.33,0,*45
1505477158.98,42625,17.56,73678.3,12.07,-32.57,-32.63,0,*49
1505477160.21,42626,17.56,73678.0,12.07,-32.45,-32.39,0,*46
1505477161.44,42627,17.56,73676.0,12.07,-30.51,-30.33,0,*48
1505477162.69,42628,17.56,73676.3,12.07,-29.39,-29.29,0,*42
1505477163.94,42629,17.56,73680.3,12.11,-30.39,-30.39,0,*45
1505477165.22,42630,17.56,73680.0,12.09,-30.77,-30.61,0,*43
1505477166.5,42631,17.56,73680.5,12.09,-31.73,-31.73,0,*45
1505477167.73,42632,17.56,73682.3,12.07,-31.29,-31.11,0,*43
1505477168.95,42633,17.56,73682.5,12.07,-29.73,-29.61,0,*4A
1505477170.23,42634,17.56,73676.3,12.09,-28.91,-28.75,0,*4A
1505477171.48,42635,17.56,73676.5,12.13,-29.73,-29.57,0,*4C
1505477172.69,42636,17.56,73680.3,12.11,-30.11,-30.27,0,*4E
1505477173.92,42637,17.56,73676.3,12.11,-33.77,-34.13,0,*4F
1505477175.14,42638,17.56,73678.3,12.07,-33.27,-33.15,0,*43
1505477176.39,42639,17.56,73678.0,12.09,-30.51,-30.11,0,*49
1505477177.64,42640,17.56,73680.8,12.07,-29.01,-28.91,0,*45
1505477178.92,42641,17.56,73676.8,12.09,-32.19,-32.07,0,*4D
1505477180.18,42642,17.56,73678.5,12.09,-31.33,-31.39,0,*4B
1505477181.41,42643,17.56,73678.8,12.09,-31.17,-31.17,0,*40
1505477182.67,42644,17.56,73682.3,12.05,-31.61,-31.45,0,*4D
1505477183.95,42645,17.56,73686.8,12.01,-30.77,-30.55,0,*4E
1505477185.23,42646,17.56,73682.3,12.05,-31.57,-31.57,0,*49
1505477186.48,42647,17.56,73680.5,12.05,-31.79,-31.91,0,*4E
1505477187.75,42648,17.56,73680.0,12.01,-34.47,-34.53,0,*46
1505477188.97,42649,17.56,73680.0,11.99,-31.01,-30.95,0,*4C
1505477190.22,42650,17.56,73680.0,11.99,-30.39,-30.39,0,*48
1505477191.43,42651,17.56,73682.0,11.99,-31.79,-31.79,0,*49
1505477192.63,42652,17.56,73682.8,11.99,-32.91,-32.91,0,*4A
1505477193.91,42653,17.56,73678.3,11.97,-33.49,-33.61,0,*4F
1505477195.2,42654,17.56,73678.3,11.97,-34.95,-34.95,0,*42
1505477196.44,42655,17.56,73678.0,11.91,-36.13,-36.19,0,*4F
1505477197.68,42656,17.56,73678.3,11.87,-35.13,-35.29,0,*48
1505477198.88,42657,17.56,73678.3,11.85,-35.13,-35.13,0,*42
1505477200.11,42658,17.56,73682.0,11.79,-35.17,-35.59,0,*44
1505477201.38,42659,17.56,73680.0,11.79,-34.83,-35.01,0,*44
1505477202.64,42660,17.56,73676.8,11.73,-33.31,-32.75,0,*4E
1505477203.88,42661,17.56,73682.0,11.73,-31.17,-31.23,0,*49
1505477205.16,42662,17.56,73682.8,11.71,-29.89,-29.73,0,*4A
1505477206.39,42663,17.56,73682.0,11.75,-30.67,-29.79,0,*4D
1505477207.68,42664,17.56,73680.3,11.79,-31.11,-30.01,0,*41
1505477208.96,42665,17.56,73682.3,11.75,-28.47,-29.17,0,*48
1505477210.18,42666,17.56,73680.0,11.75,-28.15,-29.61,0,*4D
1505477211.44,42667,17.56,73684.5,11.79,-28.85,-29.13,0,*4C
1505477212.7,42668,17.56,73680.8,11.79,-29.45,-30.05,0,*41
1505477213.98,42669,17.56,73680.3,11.79,-30.51,-30.95,0,*44
1505477215.21,42670,17.56,73682.0,11.79,-31.29,-32.01,0,*4D
1505477216.5,42671,17.56,73680.5,11.79,-31.73,-32.45,0,*43
1505477217.76,42672,17.56,73682.5,11.79,-31.11,-32.01,0,*44
1505477219.03,42673,17.56,73682.3,11.79,-28.85,-29.51,0,*4F
1505477220.32,42674,17.56,73676.0,11.79,-28.09,-28.63,0,*4C
1505477221.58,42675,17.56,73680.3,11.81,-28.79,-29.51,0,*4D
1505477222.81,42676,17.56,73680.5,11.85,-29.67,-30.51,0,*4C
1505477224.08,42677,17.56,73684.5,11.85,-29.39,-30.01,0,*43
1505477225.31,42678,17.56,73684.5,11.85,-30.45,-31.23,0,*4E
1505477226.5,42679,17.56,73684.8,11.85,-31.05,-31.79,0,*45
1505477227.74,42680,17.56,73684.0,11.81,-32.79,-33.37,0,*47
1505477229.0,42681,17.56,73682.8,11.79,-33.21,-33.73,0,*4D
1505477230.29,42682,17.56,73682.3,11.79,-31.57,-31.95,0,*47
1505477231.54,42683,17.56,73684.3,11.75,-30.23,-30.39,0,*4F
1505477232.82,42684,17.56,73684.0,11.79,-30.55,-30.95,0,*43
1505477234.1,42685,17.56,73680.0,11.79,-31.39,-31.61,0,*43
1505477235.32,42686,17.56,73682.3,11.73,-30.83,-31.17,0,*4B
1505477236.56,42687,17.56,73682.3,11.75,-30.27,-30.67,0,*44
1505477237.79,42688,17.56,73682.0,11.75,-29.79,-30.27,0,*4C
1505477239.03,42689,17.56,73682.8,11.79,-28.31,-28.85,0,*4D
1505477240.28,42690,17.56,73680.5,11.79,-27.77,-28.43,0,*42
1505477241.52,42691,17.56,73680.0,11.85,-27.07,-28.05,0,*45
1505477242.8,42692,17.56,73682.5,11.87,-27.19,-28.21,0,*4D
1505477244.02,42693,17.56,73680.5,11.89,-27.83,-28.85,0,*4F
1505477245.23,42694,17.56,73680.0,11.89,-26.65,-27.67,0,*42
1505477246.48,42695,17.56,73680.5,11.91,-26.07,-27.19,0,*47
1505477247.72,42696,17.56,73682.3,11.91,-25.91,-27.45,0,*41
1505477248.94,42697,17.56,73680.5,11.93,-27.71,-29.29,0,*4A
1505477250.18,42698,17.56,73680.8,11.93,-28.25,-30.33,0,*48
1505477251.4,42699,17.56,73682.8,11.93,-27.29,-28.75,0,*41
1505477252.64,42700,17.56,73682.5,11.93,-29.95,-31.23,0,*42
1505477253.9,42701,17.56,73678.5,11.93,-29.51,-30.55,0,*4B
1505477255.13,42702,17.56,73682.0,11.93,-29.95,-30.89,0,*41
1505477256.39,42703,17.56,73686.3,11.89,-30.95,-31.11,0,*43
1505477257.62,42704,17.56,73684.5,11.89,-30.27,-30.51,0,*48
1505477258.85,42705,17.56,73684.8,11.89,-30.83,-31.11,0,*42
1505477260.05,42706,17.56,73682.0,11.85,-30.11,-30.27,0,*42
1505477261.31,42707,17.56,73680.8,11.87,-29.61,-29.73,0,*47
1505477262.56,42708,17.56,73680.0,11.87,-29.17,-28.37,0,*48
1505477263.8,42709,17.56,73680.5,11.87,-28.85,-26.87,0,*46
1505477265.06,42710,17.56,73680.3,11.87,-28.75,-27.03,0,*4C
1505477266.34,42711,17.56,73684.3,11.87,-27.39,-25.03,0,*48
1505477267.56,42712,17.56,73680.8,11.89,-25.35,-22.21,0,*4C
1505477268.84,42713,17.56,73682.5,11.91,-23.99,-24.21,0,*42
1505477270.04,42714,17.56,73682.0,11.93,-25.91,-27.07,0,*4E
1505477271.3,42715,17.56,73684.8,11.95,-26.93,-27.55,0,*4F
1505477272.55,42716,17.56,73680.0,11.95,-27.89,-27.45,0,*47
1505477273.81,42717,17.56,73682.0,11.95,-28.21,-27.71,0,*4C
1505477275.1,42718,17.56,73680.8,11.95,-27.61,-26.13,0,*4D
1505477276.35,42719,17.56,73682.3,11.97,-27.67,-24.41,0,*4D
1505477277.61,42720,17.56,73682.3,11.97,-26.33,-21.77,0,*47
1505477278.84,42721,17.56,73682.5,11.99,-25.29,-22.27,0,*46
1505477280.08,42722,17.56,73686.0,11.99,-24.31,-20.79,0,*44
1505477281.34,42723,17.56,73686.3,12.05,-22.77,-21.77,0,*48
1505477282.57,42724,17.56,73686.0,12.01,-23.79,-24.77,0,*41
1505477283.81,42725,17.56,73682.0,12.01,-25.19,-25.61,0,*46
1505477285.07,42726,17.56,73680.8,12.01,-24.67,-24.51,0,*4F
1505477286.35,42727,17.56,73682.5,12.05,-26.29,-24.25,0,*41
1505477287.61,42728,17.56,73682.3,12.05,-24.71,-21.93,0,*49
1505477288.83,42729,17.56,73684.5,12.07,-22.93,-20.43,0,*4C
1505477290.08,42730,17.56,73686.8,12.07,-23.29,-22.77,0,*41
1505477291.28,42731,17.56,73686.0,12.11,-25.65,-23.89,0,*49
1505477292.54,42732,17.56,73686.5,12.11,-25.81,-25.03,0,*44
1505477293.78,42733,17.56,73682.8,12.13,-27.19,-26.65,0,*47
1505477295.07,42734,17.56,73680.3,12.13,-27.61,-26.77,0,*4C
1505477296.3,42735,17.56,73682.5,12.13,-26.61,-25.65,0,*4C
1505477297.56,42736,17.56,73682.3,12.17,-28.69,-28.09,0,*4A
1505477298.82,42737,17.56,73686.0,12.15,-30.17,-30.01,0,*48
1505477300.08,42738,17.56,73684.3,12.15,-29.35,-29.01,0,*47